sat.trackr.live / text

‹ back to catalog

KUIPER-00042

NORAD 64503 · 2025-134D

PAYLOAD ACTIVE UNKNOWN

§ Identity

Operator
Country
US
Launch date
2025-06-23
Launch site
AFETR
Launch vehicle
Mass (kg)
RCS (m²)

External: N2YO · Heavens-Above · Gunter

§ Orbital elements

Epoch: 2026-09-21T19:55:22.272096Z

Period
97.30 min
Inclination
51.8998°
Eccentricity
0.0000750
Mean motion
14.79941890 rev/d
Perigee alt
629.0 km
Apogee alt
630.0 km
Semi-major
7,007.6 km
B*
2.5640e-4
RAAN
93.2117°
Arg perigee
120.3737°
Mean anomaly
239.7299°
Rev number
6,901

§ Raw data

KUIPER-000421 64503U 25134D   26264.83011889  .00001734  00000+0  25640-3 0  99952 64503  51.8998  93.2117 0000750 120.3737 239.7299 14.79941890 69017

JSON: /api/v1/satellites/64503 · /tle

For live sub-satellite position, see the globe view (requires WebGL).

§ Visibility from observer

Set your observer location to see the next 7 days of passes ≥ 10°. The values pass through the URL so the page stays shareable.

No JS? Fill the form by hand. The geolocation button needs JavaScript.